Погода в Марьинском

Россия / Калининградская область     54°55′46″N   19°57′44″E
темп.,
°C
ветер,
м/с
пор.,
м/с
влажн.,
%
обл.,
%
осадки,
мм/ч
давл.,
гПа
погр.,
м
8 мая, сб
сб823:00+4сз578698 0.0 1010647
02:00+5ссз56715 0.1 1011686
05:00+4зсз34805 0.0 1012343
08:00+5зюз557842 0.0 1013426
11:00+5зюз668092 0.0 1015353
14:00+6юз67885 0.1 1015318
17:00+6зсз710875 0.0 1016368
20:00+6з57890 0.0 1017223
9 мая, вс
вс923:00+6зюз44835 0.0 101890
02:00+6ююз57837 0.0 1018182
05:00+5ю6883100 0.0 1018196
08:00+7ю81276100 0.0 1018253
11:00+9ю81171100 0.0 1017163
14:00+9ю101572100 0.1 1016218
17:00+11ю81177100 0.0 101591
20:00+11ю81182100 0.0 101571
10 мая, пн
пн1023:00+10ююв710875 0.0 101581
02:00+10ю7118799 0.0 101591
05:00+9ю81283100 0.0 1015119
08:00+10ююв81182100 0.0 101589
11:00+13ююв810735 0.0 101557
14:00+15ююв8117040 0.0 101459
17:00+15ююв911726 0.0 101468
20:00+13юв788196 0.0 101444
11 мая, вт
вт1123:00+13юв91284100 0.0 101489
02:00+12ююв8128797 0.0 101482
05:00+10юв7109136 0.0 101483
08:00+11юв8118855 0.0 101479
11:00+13юв8107913 0.0 101366
14:00+15юв8117510 0.0 101258
17:00+16юв9117891 0.0 101257
20:00+14юв912805 0.0 101172
12 мая, ср
ср1223:00+13юв1014770 0.0 1012111
02:00+12юв913730 0.0 1012105
05:00+10юв812770 0.0 1012120
08:00+11юв1014790 0.0 1012140
11:00+14юв913750 0.0 101285
14:00+15юв911755 0.0 101269
17:00+15вюв811760 0.0 101261
20:00+13вюв66820 0.0 101226